Starlink 31494

operational
NORAD ID: 59238 Int'l Des: 2024-049 Owner: SPXS Country: US Constellation: starlink
LEOCIRCULAR

Starlink 31494について

説明を読み込み中...

リアルタイム位置

3D地球を読み込み中...

次回通過

高度履歴

Altitude vs Time

uPlot chart will show altitude changes over time

軌道要素

1 59238U 24049H 25351.00732695 .00001756 00000-0 73309-4 0 9999
2 59238 42.9992 250.2473 0001433 279.0154 81.0536 15.27581979 99764
Epoch: Dec 17, 2025 • Age: 7 hours

現在のステータス

高度 484.1 km
速度 7.63 km/s
衛星直下点 28.23°N, 158.16°W
打ち上げ日 Mar 16, 2024
運用期間 1.7 years
タイプ internet

技術仕様

分類 Payload
質量 730.00 kg
乾燥質量 700.00 kg
総質量 730.00 kg
長さ 0.30 m
直径 4.10 m
スパン 29.00 m
形状 Box + pan
製造者 SPXS
バスタイプ Starlink V2M
フェーズステータス In Orbit
所有者/国 SPXS/US

大規模コンステレーション

Loading constellations...